Reflectivity
-20 -20 -20 -20 -20 -20 -20 -20 -20 -20 -20 -20 -20 -20 -20 -20 -20 -20 -20 -20 -20 -20 -20 -20 -20 -20 -20 -20 -20 -20 -13 -16 -12 30 33 27 -10 -20 -20 -20 -20 -20 -20
-20 -20 -20 -20 -20 -20 -20 -20 -20 -20 -20 -20 -20 -20 -20 -20 -20 -20 -20 -20 -20 -20 -20 -20 -20 -20 -20 -20 -20 -11 -20 -20 -5 12 8 18 29 21 -7 15 15 -20 -20
-20 -20 -20 -20 -20 -20 -20 -20 -20 -20 -20 -20 -20 -20 -20 -20 -20 -20 -20 -20 -20 -20 -20 -20 -20 -20 -20 -20 -20 -20 -20 -20 -20 -20 -5 2 -12 -12 15 24 21 3 5
-20 -20 -20 -20 -20 -20 -20 -20 -20 -20 -20 -20 -20 -20 -18 -20 -20 -20 -20 -20 -20 -20 -20 -20 -20 -20 -20 -20 -20 -20 -20 10 -10 11 7 -1 -20 -20 -20 2 24 11 30
-20 -20 -20 -20 -20 -20 -20 -20 -20 -20 -20 -20 -20 -20 -18 -20 -20 -20 -20 -20 -20 -20 -20 -20 -20 -20 -20 -20 -20 -20 -20 -20 12 13 9 8 3 -20 -20 -20 -20 -10 12
-20 -20 -20 -20 -20 -20 -20 -20 -20 -20 -20 -20 -20 -20 -20 -20 -20 -20 -20 -20 -20 -20 -20 -20 -20 -20 -20 -20 -20 -20 -20 -14 10 -20 5 9 -10 -7 -20 -20 -20 -19 6
-20 -20 -20 -20 -20 -20 -20 -20 -20 -20 -20 -20 -20 -20 -20 -20 -6 -7 -19 -20 -20 -20 -20 -20 -20 -20 -20 -20 -20 -20 -20 -20 -20 -11 -7 -15 -20 3 -16 -20 -20 -20 -20
-20 -20 -20 -20 -20 -20 -20 -20 -20 -20 -20 -20 -20 -20 -20 -20 -20 -20 -1 -3 -20 -20 -20 -20 -20 -20 -20 -20 -20 -20 -20 -20 -20 -20 -15 18 9 1 -19 4 13 -20 -20
-20 -20 -20 -20 -20 -20 -20 -20 -20 -20 -20 -20 -20 -20 -20 -20 -20 -20 -20 -7 -20 -13 -20 -20 -20 -20 -20 -20 -20 -20 -20 -20 -20 -20 -16 -20 -20 16 2 6 -16 -20 -19
-20 -20 -20 -20 -20 -20 -20 -20 -20 -20 -20 -20 -20 -20 -20 -20 -20 -15 -20 -20 -20 -20 -20 -20 -20 -20 -20 -20 -1 7 -8 2 -4 -16 4 -0 -20 14 23 -0 -3 6 -14
-20 -20 -20 -20 -20 -20 -20 -20 -20 -20 -20 -20 -20 -20 -20 -20 -20 -20 -20 -20 -20 -20 -20 -20 -20 -20 -20 -20 -20 -20 -5 9 8 8 11 5 -4 -20 -17 5 -20 -20 5
-20 -20 -20 -20 -20 -20 -20 -20 -20 -20 -20 -20 -20 -20 -20 -20 -20 -20 -20 -20 -20 -20 -20 -20 -20 -20 -20 -20 -20 -20 -18 -18 -10 11 13 10 11 -18 -0 10 -20 -20 -20
-20 -20 -20 -20 -20 -20 -20 -20 -20 -20 -20 -20 -20 -20 -20 -20 -20 -20 -20 -20 -20 -20 -20 -20 -20 -20 -20 -20 -20 -15 -20 -20 -7 -17 -16 -8 -12 -20 -18 -20 -20 -20 -20
-20 -20 -20 -20 -20 -20 -20 -20 -20 -20 -20 -20 -20 -20 -20 -20 -20 -17 3 -2 -2 -20 -20 -20 -20 -20 -20 -20 -20 -11 2 -5 -12 -20 -19 -18 -6 -20 -20 -8 -20 -19 8
-20 -20 -20 -20 -20 -20 -20 -20 -20 -20 -20 -20 -20 -20 -20 -20 -20 -20 1 -3 4 -10 -20 -20 -20 -20 -20 -18 -20 -20 -11 -13 -20 -20 -20 -9 -20 -20 -20 -20 -20 -20 13
-20 -20 -20 -20 -20 -20 -20 -20 -20 -20 -20 -20 -20 -20 -20 -20 -20 -20 -14 -20 -16 -7 -20 -20 -20 -20 -20 14 8 7 -20 -20 -20 -20 -20 -20 -20 -20 25 5 -11 -17 6
-20 -20 -20 -20 -20 -20 -20 -20 -20 -20 -20 -20 -20 -20 -20 -20 -20 -20 -20 -20 -20 -20 -20 -20 -20 -20 -20 -17 -13 -20 -20 -2 -19 -20 -20 -20 -20 4 -17 -20 13 22 21
-20 -20 -20 -20 -20 -20 -20 -20 -20 -20 -20 -20 -20 -20 -20 -20 -20 -20 -20 -20 -20 -20 -20 -20 -9 -0 8 -18 -20 -20 -20 -20 -20 -14 -20 -12 -20 4 7 12 26 4 -5
-20 -20 -20 -20 -20 -20 -20 -20 -20 -20 -20 -20 -20 -20 -20 -20 -20 -20 -20 -20 -20 -20 -20 -20 -20 -11 -5 11 -14 -20 -20 -20 -20 -19 -18 1 -20 -20 -20 -4 -16 -12 -18
-20 -20 -20 -20 -20 -20 -20 -20 -20 -20 -20 -20 -20 -20 -20 -20 -20 -20 -20 -20 -20 -20 -20 -20 -20 -20 -6 18 15 -18 9 -19 -20 -19 -20 5 -2 -20 -20 -20 -20 -20 -9
-20 -20 -20 -20 -20 -20 -20 -20 -20 -20 -20 -20 -20 -20 -20 -20 -20 -20 -20 -20 -20 -20 -20 -20 -20 -20 -20 -13 13 12 11 7 -12 4 9 -0 1 -5 -11 -10 -5 2 23
-20 -20 -20 -20 -20 -20 -20 -20 -20 -20 -20 -20 -20 -20 -20 -20 -20 -20 -20 -20 -20 -20 -20 -20 -20 -20 -20 -20 12 14 12 19 11 17 26 22 17 10 17 16 15 17 19
-20 -20 -20 -20 -20 -20 -20 -20 -20 -20 -20 -20 -20 -20 -20 -20 -20 -20 -20 -20 -20 -20 -20 -20 -20 -20 -20 -20 -20 1 15 15 13 16 23 20 16 28 34 37 35 35 33
-20 -20 -20 -20 -20 -20 -20 -20 -20 -20 -20 -20 -20 -20 -20 -20 -20 -20 -20 -20 -20 -20 -20 -20 -20 -20 -20 -20 -20 -20 -20 -20 -9 2 -6 -5 1 3 -1 7 14 -6 -2
-20 -20 -20 -20 -20 -20 -20 -20 -20 -20 -20 -20 -20 -20 -20 -20 -20 -20 -20 -20 -20 -20 -20 -20 -20 -20 -20 -16 -1 -2 -20 -20 -20 -20 -20 -20 -20 -20 -20 -20 -20 -20 -20
-20 -20 -20 -20 -20 -20 -20 -20 -20 -20 -20 -20 -20 -20 -20 -20 -20 -20 -20 -20 -20 -20 -20 -20 -20 -20 -20 7 9 10 8 -20 -20 -20 -20 -20 -20 -20 -20 -20 -20 -20 -20
Wind_Speed
5 7 7 7 7 7 7 9 9 10 7 6 7 6 7 8 6 5 9 9 9 9 9 7 6 5 8 8 9 9 14 9 7 5 6 5 8 9 9 8 8 9 11
6 7 7 6 6 7 7 8 9 10 9 8 7 8 8 8 8 8 9 9 10 9 9 9 8 8 7 7 9 11 10 10 7 5 5 4 4 8 8 7 8 12 8
7 8 7 6 6 6 7 8 8 9 9 10 9 9 7 6 6 8 8 10 11 10 10 10 8 7 7 9 8 10 14 11 8 11 9 4 6 3 3 10 9 10 9
5 6 7 6 7 7 6 6 7 8 8 9 9 11 10 11 10 9 7 7 7 10 9 10 9 9 8 10 8 8 11 11 12 5 11 11 2 4 2 3 9 8 10
6 8 7 7 8 7 7 7 7 7 8 8 9 9 11 10 8 8 10 9 8 8 10 9 9 9 8 10 9 8 10 11 11 11 5 11 8 2 3 4 3 4 10
8 8 7 7 7 7 7 7 8 8 8 7 9 10 12 13 10 10 7 8 6 6 8 10 10 10 9 9 8 8 12 12 12 11 12 11 8 9 4 3 3 5 5
7 8 8 7 7 8 7 7 7 10 10 10 10 10 11 12 14 12 9 9 7 6 9 9 10 8 9 10 10 9 11 12 12 12 12 10 11 4 8 8 5 5 5
7 9 9 7 8 7 6 7 8 10 11 12 13 11 10 7 9 11 11 9 8 8 9 8 9 10 9 9 8 8 9 10 11 14 12 10 9 8 8 7 7 4 4
8 8 7 7 8 6 6 6 8 11 10 11 11 13 12 12 11 13 12 10 11 9 8 9 9 10 10 10 9 8 9 9 10 12 11 11 10 8 7 7 8 10 10
8 8 7 7 6 5 5 7 7 9 10 11 10 11 12 11 12 12 14 12 11 10 9 8 9 10 10 10 10 10 10 11 10 10 11 10 9 8 6 7 6 8 12
9 8 7 6 5 5 5 6 6 8 9 10 11 11 12 13 13 11 12 12 11 9 8 10 10 10 10 9 9 11 10 11 12 11 11 12 10 8 7 6 7 8 8
9 8 7 5 5 6 5 6 6 6 9 10 10 10 12 12 12 11 12 10 11 10 8 8 9 9 9 9 7 8 9 10 11 11 11 12 7 8 6 6 9 8 7
9 8 6 6 6 5 4 6 6 6 8 9 10 10 11 11 12 12 12 10 9 10 10 7 8 9 10 8 8 7 7 10 11 10 11 11 8 7 5 7 8 6 6
9 7 6 6 6 5 4 5 6 6 7 8 8 9 10 11 11 12 12 7 7 9 10 7 6 7 7 3 3 6 6 9 10 9 11 10 10 9 8 8 9 7 9
8 8 7 6 5 5 4 5 6 6 6 6 8 9 10 10 9 10 10 10 9 9 8 8 7 7 6 7 9 8 7 6 6 6 6 7 8 12 12 7 8 8 9
8 8 6 7 6 5 5 5 6 6 5 6 7 9 9 9 9 9 9 9 9 8 8 6 6 7 6 16 14 11 9 7 4 5 6 6 8 10 14 14 13 11 10
8 8 7 7 6 5 4 5 6 5 6 6 7 8 9 10 8 8 8 8 8 8 8 9 9 7 5 17 16 14 8 8 5 5 4 5 4 5 5 8 10 10 11
9 8 7 6 6 4 4 3 4 5 5 6 6 7 7 8 9 7 7 7 6 7 7 7 8 8 7 19 20 16 8 6 6 4 4 4 2 1 3 4 6 0 7
8 7 5 5 4 6 6 4 4 5 5 5 6 6 7 7 7 7 7 5 5 5 5 6 8 8 9 21 18 14 7 3 5 6 7 5 4 4 5 5 6 8 8
7 7 6 4 6 6 5 5 6 5 6 6 6 5 5 6 6 6 6 5 4 5 5 6 6 11 10 19 17 12 3 6 6 7 9 16 11 13 11 5 8 8 4
9 7 7 8 9 5 5 7 6 8 7 5 5 5 4 5 5 6 4 5 5 4 5 5 6 8 11 14 19 16 6 5 6 6 6 7 16 18 18 15 7 6 6
8 7 7 8 8 7 8 7 8 5 5 6 6 5 4 3 3 5 5 5 5 5 5 5 5 6 7 15 17 17 15 12 7 7 5 8 17 17 18 12 16 13 7
7 6 7 8 7 7 8 8 8 6 6 5 6 5 4 3 2 2 4 3 4 4 4 3 4 5 5 5 14 16 15 14 8 5 11 14 15 17 14 17 16 13 5
7 5 6 8 10 7 9 12 6 7 7 6 6 5 4 4 3 2 1 2 3 2 3 4 4 4 4 4 4 4 4 8 7 8 8 12 13 14 11 9 10 6 5
6 5 7 7 10 6 8 8 7 7 6 6 5 5 4 5 4 3 3 2 3 2 1 1 2 4 5 6 7 4 3 3 5 5 4 5 5 6 5 6 6 4 5
5 6 8 7 9 7 8 8 8 9 8 6 5 6 5 4 4 3 3 6 3 3 4 5 2 3 8 8 9 7 5 4 4 3 4 4 5 5 5 5 5 5 5
Wind_Direction
299 307 315 314 316 320 325 324 319 317 312 312 312 306 297 297 282 253 249 242 238 237 238 244 238 227 242 245 236 242 252 254 239 276 245 208 215 204 215 217 217 214 214
314 310 310 311 317 313 315 323 325 322 322 316 302 289 283 281 281 281 271 253 246 236 234 240 241 236 238 231 236 237 241 247 230 230 247 266 242 225 212 210 215 220 210
287 302 310 306 310 308 305 316 314 316 315 314 314 303 290 279 276 265 266 255 246 244 236 239 235 237 237 245 233 235 237 243 234 217 224 194 222 150 180 225 218 217 214
274 279 295 305 310 299 296 292 305 314 316 311 317 309 300 292 277 279 271 255 249 251 245 241 236 237 238 242 237 235 238 238 238 220 223 235 193 182 207 216 224 209 229
275 280 281 289 300 303 301 303 304 308 314 325 323 320 310 308 282 274 273 263 253 242 244 236 242 244 245 247 234 231 236 235 241 235 216 230 221 242 170 218 208 206 218
280 279 279 284 290 292 307 310 310 316 311 316 321 325 319 316 311 301 280 271 266 258 244 243 241 238 235 240 242 236 240 244 240 235 234 226 213 217 182 186 193 198 210
275 278 281 295 297 304 297 300 319 312 317 319 320 319 312 311 309 314 300 287 270 255 254 245 245 242 244 246 243 233 236 236 242 243 238 233 236 213 209 221 215 214 230
276 263 265 285 277 273 301 305 315 317 320 320 317 307 304 303 305 301 299 294 280 261 251 245 241 245 244 243 241 239 240 238 238 243 243 238 237 226 227 221 218 243 239
281 280 278 258 266 292 299 305 326 316 315 307 311 313 307 314 305 301 296 287 285 267 248 242 247 246 246 247 247 245 241 235 234 236 234 233 237 229 220 225 228 232 242
282 272 260 261 265 277 305 327 298 296 305 303 297 298 310 308 305 304 299 288 291 269 255 250 241 246 249 248 248 254 245 233 231 233 233 230 229 225 215 207 217 228 240
277 273 267 262 283 303 304 286 293 309 302 299 301 307 319 318 313 306 299 299 296 281 257 251 246 243 248 251 253 255 254 239 237 234 229 227 214 213 211 199 205 218 222
266 271 262 276 296 288 290 294 301 310 305 308 308 310 313 322 314 308 303 297 288 286 266 258 255 256 251 249 239 249 253 245 236 235 229 232 214 209 204 193 214 217 213
278 275 275 261 265 276 300 311 309 302 305 309 311 317 322 326 321 314 309 302 292 294 289 270 255 255 251 242 241 252 254 259 235 229 225 230 203 210 203 212 220 215 225
268 270 266 257 261 277 290 303 303 299 305 305 309 317 324 324 326 324 321 327 327 333 336 305 276 267 249 293 314 276 283 254 237 230 224 218 205 205 202 206 211 208 230
275 261 256 259 262 280 289 299 296 301 298 309 320 318 320 323 331 339 339 343 353 348 349 358 356 357 34 6 340 336 309 283 257 241 234 222 214 211 206 202 206 194 215
271 273 260 268 270 274 292 307 301 306 315 320 316 317 317 321 335 343 352 351 352 346 350 360 8 13 2 351 337 328 301 295 288 270 258 242 234 233 221 209 201 202 215
272 267 250 249 253 250 260 292 299 312 319 322 317 319 325 325 330 338 349 359 353 349 0 353 357 2 339 345 339 330 309 302 283 275 270 272 254 234 255 242 246 251 245
277 258 245 247 238 218 218 248 284 301 308 306 310 317 322 326 326 335 343 347 343 358 357 358 355 342 338 343 337 325 282 257 267 304 305 260 195 141 230 259 262 210 56
256 253 256 244 221 218 222 227 265 270 282 288 306 313 316 318 323 333 333 324 342 340 354 1 356 349 336 341 338 322 265 168 83 69 58 60 57 359 241 192 139 115 103
234 241 239 237 243 245 215 226 255 270 276 279 289 302 314 319 320 319 325 320 329 335 343 347 339 343 335 343 0 1 19 101 98 78 65 61 64 58 57 109 135 115 103
265 244 208 211 219 221 202 237 250 249 253 270 280 289 313 309 317 314 323 327 329 348 353 359 340 346 349 345 17 26 22 71 85 69 65 64 66 68 70 78 72 87 111
280 260 236 233 228 191 182 233 248 249 248 256 260 274 304 319 339 336 332 343 349 355 355 359 352 348 346 0 15 36 52 56 72 81 60 62 71 71 70 63 78 78 66
250 257 238 252 234 207 198 211 228 214 225 251 269 279 286 303 320 360 350 350 353 355 348 356 350 339 343 355 18 24 48 62 63 65 81 78 74 66 60 63 63 56 46
247 239 245 251 258 220 209 224 196 188 193 225 242 238 239 270 298 319 345 349 344 348 350 347 347 333 339 349 9 27 25 41 40 44 67 73 70 68 67 60 53 51 64
256 238 240 236 246 235 224 226 208 188 215 209 214 228 230 236 245 252 244 253 262 233 306 316 326 338 346 11 14 31 46 74 90 71 50 43 49 63 57 57 44 36 35
250 252 245 248 256 231 228 216 200 191 197 212 212 210 196 205 221 237 280 284 273 331 347 338 324 334 352 354 8 19 46 62 75 59 68 63 63 59 48 43 41 35 35